EHI
0 0 0 0 0 0 0 0 0 0 0 0 0 0 0 0 0 0 0 0 0 0 0 0 0 0 0 0 0 0 0 0 0 0 0 0 0 0
0 0 0 0 0 0 0 0 0 0 0 0 0 0 0 0 0 0 0 0 0 0 0 0 0 0 0 0 0 0 0 0 0 0 0 0 0 0
0 0 0 0 0 0 0 0 0 0 0 0 0 0 0 0 0 0 0 0 0 0 0 0 0 0 0 0 0 0 0 0 0 0 0 0 0 0
0 0 0 0 0 0 0 0 0 0 0 0 0 0 0 0 0 0 0 0 0 0 0 0 0 0 0 0 0 0 0 0 0 0 0 0 0 0
0 0 0 0 0 0 0 0 0 0 0 0 0 0 0 0 0 0 0 0 0 0 0 0 0 0 0 0 0 0 0 0 0 0 0 0 0 0
0 0 0 0 0 0 0 0 0 0 0 0 0 0 0 0 0 0 0 0 0 0 0 0 0 0 0 0 0 0 0 0 0 0 0 0 0 0
0 0 0 0 0 0 0 0 0 0 0 0 0 0 0 0 0 0 0 0 0 0 0 0 0 0 0 0 0 0 0 0 0 0 0 0 0 0
0 0 0 0 0 0 0 0 0 0 0 0 0 0 0 0 0 0 0 0 0 0 0 0 0 0 0 0 0 0 0 0 0 0 0 0 0 0
0 0 0 0 0 0 0 0 0 0 0 0 0 0 0 0 0 0 0 0 0 0 0 0 0 0 0 0 0 0 0 0 0 0 0 0 0 0
0 0 0 0 0 0 0 0 0 0 0 0 0 0 0 0 0 0 0 0 0 0 0 0 0 0 0 0 0 0 0 0 0 0 0 0 0 0
0 0 0 0 0 0 0 0 0 0 0 0 0 0 0 0 0 0 0 0 0 0 0 0 0 0 0 0 0 0 0 0 0 0 0 0 0 0
0 0 0 0 0 0 0 0 0 0 0 0 0 0 0 0 0 0 0 0 0 0 0 0 0 0 0 0 0 0 0 0 0 0 0 0 0 0
0 0 0 0 0 0 0 0 0 0 0 0 0 0 0 0 0 0 0 0 0 0 0 0 0 0 0 0 0 0 0 0 0 0 0 0 0 0
0 0 0 0 0 0 0 0 0 0 0 0 0 0 0 0 0 0 0 0 0 0 0 0 0 0 0 0 0 0 0 0 0 0 0 0 0 0
0 0 0 0 0 0 0 0 0 0 0 0 0 0 0 0 0 0 0 1 0 0 0 0 0 0 0 0 0 0 0 0 0 0 0 0 0 0
0 0 0 0 0 0 0 0 0 0 0 0 0 0 0 0 0 0 0 0 0 0 0 0 0 0 0 0 0 0 0 0 0 0 0 0 0 0
0 0 0 0 0 0 0 0 0 0 0 0 0 0 0 0 0 0 0 0 0 0 0 0 1 0 0 0 0 0 0 0 0 0 0 0 0 0
0 0 0 0 0 0 0 0 0 0 1 1 0 0 0 0 0 0 0 0 0 0 0 0 0 0 0 0 0 0 0 0 0 0 0 0 0 0
0 0 0 0 0 0 0 0 1 1 1 1 1 0 0 0 0 0 0 0 0 0 0 0 0 0 0 0 0 0 0 0 0 0 0 0 0 0
0 0 0 0 0 0 0 1 1 2 2 2 1 0 0 0 0 0 0 0 0 0 0 0 0 0 0 0 0 0 0 0 0 0 0 0 0 0
0 0 0 0 0 1 1 2 2 1 2 2 1 0 0 0 0 0 0 0 0 0 0 0 0 0 0 0 0 0 0 0 0 0 0 0 0 0
0 0 0 0 1 2 3 3 2 1 1 1 0 0 0 0 0 0 0 0 0 0 0 0 0 0 0 0 0 0 0 0 0 0 0 0 0 0
0 0 0 0 1 3 4 3 2 1 0 0 0 0 0 0 0 0 0 0 0 0 0 0 0 0 0 0 0 0 0 0 0 0 0 0 0 0
Wind_Speed
2 2 2 2 2 1 1 1 2 3 3 1 1 2 2 2 5 3 2 6 8 9 9 9 9 10 10 11 12 12 12 13 14 14 15 16 18 19
1 1 2 2 3 2 1 1 1 2 2 2 1 0 1 1 4 2 3 6 10 11 11 11 11 11 11 11 11 12 13 13 14 14 15 15 16 17
2 1 1 1 2 3 3 2 2 1 2 3 2 1 1 1 2 3 3 4 5 12 13 13 12 12 12 12 12 12 13 13 14 14 15 15 16 16
2 2 3 2 2 2 2 3 3 2 2 3 3 3 3 3 3 4 5 5 4 8 12 14 14 14 14 13 13 13 13 13 14 14 14 15 16 17
2 2 2 3 2 2 3 3 3 4 2 3 4 3 3 3 3 4 5 4 6 7 10 13 14 15 15 15 14 14 14 14 14 14 15 15 15 16
2 2 3 3 2 2 3 3 3 3 4 3 4 4 3 3 2 3 3 3 4 6 5 6 11 14 16 16 16 16 16 15 15 15 15 15 15 16
2 3 4 3 2 2 3 2 3 3 4 4 4 4 3 3 3 3 3 3 4 4 4 4 4 6 8 12 15 16 16 16 16 16 16 16 16 16
4 3 4 5 6 9 9 7 6 5 4 4 4 5 5 4 3 4 4 4 4 3 3 4 4 4 5 6 11 16 18 18 17 17 17 17 17 17
4 4 5 4 2 3 6 10 10 12 11 7 7 7 6 5 4 5 4 5 5 5 5 6 5 5 5 7 11 14 16 17 18 17 17 17 17 17
6 5 5 4 4 3 4 5 5 7 9 9 9 9 8 6 5 5 6 6 7 6 6 6 6 6 7 5 8 11 13 15 17 17 17 17 17 17
7 6 6 5 6 6 5 6 6 6 9 10 12 12 12 11 7 4 5 6 7 6 5 5 5 5 5 5 7 12 14 16 16 17 17 17 17 15
5 6 8 8 8 8 5 5 7 6 6 7 6 9 10 12 13 9 8 7 7 6 5 4 5 4 5 5 4 4 6 11 14 15 16 17 15 10
5 4 3 6 9 10 8 7 9 7 6 7 7 7 7 7 8 9 9 8 8 7 5 4 4 4 5 5 5 5 5 5 6 8 13 16 16 13
5 4 2 4 7 9 8 10 11 8 6 7 7 7 6 6 6 7 9 10 9 10 8 6 5 6 6 7 6 5 5 5 5 5 6 9 13 16
6 8 7 8 8 8 13 14 10 7 7 8 8 7 6 6 5 5 6 7 8 10 10 9 9 7 7 8 7 6 6 5 5 5 5 5 5 6
8 9 11 13 12 12 10 9 8 9 8 8 7 7 5 5 5 5 5 4 5 6 8 10 10 10 8 9 8 8 6 5 4 5 5 5 5 5
3 5 6 6 6 7 8 8 8 8 9 8 8 7 6 6 6 5 4 5 5 6 6 5 7 8 9 8 8 8 7 6 6 6 5 6 6 6
2 6 7 7 7 7 6 6 6 6 6 6 6 6 6 6 6 5 5 5 6 6 6 5 4 3 4 6 10 9 8 7 6 6 5 6 7 5
5 8 8 8 7 7 6 5 5 4 4 5 5 6 6 5 5 5 5 5 6 6 6 5 4 4 6 8 7 9 7 6 5 5 5 6 7 6
8 9 8 8 7 6 6 5 4 4 4 4 5 5 5 5 5 6 5 6 6 6 6 5 5 5 7 7 6 6 9 7 6 6 5 5 5 6
8 7 7 7 6 6 5 4 4 4 5 5 5 5 5 5 6 6 6 8 8 6 6 6 6 7 5 4 5 6 5 8 8 6 5 5 5 5
8 7 6 5 5 5 5 4 4 4 5 5 6 5 5 5 6 7 6 6 6 6 6 5 5 4 4 6 7 7 6 5 6 9 10 9 6 5
6 6 6 5 4 4 3 4 5 5 4 5 5 5 5 5 5 5 6 6 5 5 5 5 4 4 5 6 6 6 8 7 5 5 5 8 12 13
Wind_Direction
335 352 334 331 336 339 338 333 325 320 319 324 42 136 163 154 171 194 198 207 215 223 229 233 236 238 238 237 234 232 232 233 233 234 234 233 231 231
289 351 343 335 349 332 322 319 306 298 302 321 319 94 141 225 187 214 230 224 220 222 227 230 233 235 236 236 235 233 233 233 232 231 232 233 233 232
325 339 329 326 334 332 329 320 308 302 292 303 321 321 293 269 243 243 248 233 228 225 225 227 229 231 233 234 235 235 235 235 234 232 233 234 235 235
331 339 326 321 341 311 321 319 317 305 283 286 294 290 274 254 237 240 256 259 254 236 226 225 227 229 232 233 235 235 236 236 235 234 235 235 236 237
322 320 314 314 313 317 320 309 308 307 309 290 286 281 275 269 257 253 258 262 267 260 236 226 227 231 232 233 234 235 235 235 235 235 236 237 237 237
301 297 287 286 289 302 293 293 298 306 297 286 277 276 272 266 254 253 266 255 262 271 266 242 230 230 232 232 232 233 233 233 234 235 237 237 237 237
282 275 273 263 254 250 278 315 321 312 307 301 294 292 291 303 292 283 279 277 268 262 259 255 234 230 230 234 235 237 234 233 233 233 234 236 237 238
289 286 279 247 224 225 238 246 249 263 277 288 292 293 298 302 312 303 297 296 289 281 289 281 271 254 243 231 227 227 229 231 232 233 233 234 236 237
282 282 284 294 287 250 237 237 244 247 241 247 264 273 281 289 301 302 295 292 284 287 292 280 274 272 264 262 246 231 228 228 230 231 232 233 236 237
259 257 257 266 276 279 287 274 257 250 239 231 239 250 257 261 265 271 275 277 268 262 250 261 262 260 267 263 258 242 233 228 228 230 231 233 235 237
251 248 240 234 222 229 251 269 276 276 270 255 235 242 250 257 255 267 269 270 275 271 252 248 258 262 261 258 254 245 238 233 231 231 233 234 236 236
252 243 238 230 218 218 235 256 267 272 285 293 276 258 251 251 242 232 242 254 264 270 260 257 266 270 271 258 255 247 242 242 238 236 236 235 233 232
269 263 242 217 216 220 228 243 253 266 280 277 274 264 250 241 232 221 220 230 245 254 263 266 274 275 270 276 271 259 245 242 236 240 238 237 232 221
269 277 266 220 230 235 237 246 253 262 265 266 267 265 262 258 244 229 221 222 229 242 256 260 263 265 270 273 273 266 256 250 242 240 235 231 230 227
259 273 282 256 255 250 246 247 249 246 247 253 258 259 257 256 254 248 236 229 233 241 247 241 242 249 251 259 266 266 267 260 248 245 242 233 226 221
254 268 266 255 248 254 259 242 229 232 238 249 255 259 260 259 253 246 246 243 247 251 244 240 238 239 246 251 256 264 261 258 256 252 248 247 239 230
260 258 261 258 248 242 240 239 233 228 231 238 248 255 258 259 258 249 247 248 252 261 264 254 238 229 233 242 253 256 258 259 257 255 252 255 250 240
245 262 264 265 266 265 258 250 241 240 241 238 242 248 253 258 263 258 248 248 254 257 259 260 257 256 253 249 235 248 254 255 255 251 248 255 261 252
238 258 261 262 264 264 265 267 266 259 257 255 254 254 252 254 260 264 262 260 260 261 260 257 248 242 258 269 258 228 239 251 251 252 248 247 257 258
238 251 255 256 259 263 264 265 266 267 265 264 265 265 262 261 260 259 257 258 262 264 264 258 248 240 244 258 268 264 237 241 247 252 256 258 257 259
254 249 247 248 253 257 256 257 264 269 271 269 268 265 262 259 259 259 260 264 261 260 264 262 257 250 246 250 260 262 255 238 237 240 245 253 264 265
260 267 267 262 261 262 260 256 261 262 269 271 271 266 264 262 262 261 262 265 260 258 264 266 263 257 250 251 260 267 269 262 252 248 243 237 242 248
257 267 277 280 271 263 267 268 270 267 260 262 269 269 269 271 276 271 268 268 271 273 273 273 271 265 262 257 260 267 271 268 262 254 252 245 239 245